Find Starlink 4290

NORAD ID: 53006 Int'l Des: 2022-076 Owner: SPXS Country: US Constellation: starlink operational
LEOCIRCULAR

实时位置

正在加载3D地球...

关于 Starlink 4290

正在加载描述...

即将过境

Passes for default location (London). Set your location on the main map for personalized predictions.

高度历史

Loading altitude history...

两行轨道根数

1 53006U 22076W 26127.88593879 -.00001337 00000-0 -65980-4 0 9994
2 53006 53.2161 188.3800 0000868 93.8569 266.2523 15.08830873211782
Epoch: May 7, 2026 • Age: 9 hours

当前状态

高度 542.8 km
速度 7.60 km/s
星下点 39.90°N, 15.7°E
发射日期 Jul 7, 2022
运行时间 3.8 years
类型 internet

技术详情

分类 Payload
质量 297.00 kg
干质量 275.00 kg
总质量 297.00 kg
长度 0.20 m
直径 2.80 m
跨度 9.00 m
形状 Box + pan
制造商 SPXS
平台类型 Starlink
阶段状态 In Orbit
所有者/国家 SPXS/US

Most Searched